Georgetown, DE

11:58 PM EDT on July 26, 2017 (GMT -0400)
Sussex County

Weather History for KGED - April, 2014

Change the Weather History Date:

Friday, April 11, 2014

  Actual Average Record
Temperature  
Mean Temperature 69 °F 53 °F  
Max Temperature 81 °F 63 °F 83 °F (2013)
Min Temperature 56 °F 42 °F 23 °F (1985)
Degree Days  
Heating Degree Days 0 13  
Month to date heating degree days 127 156  
Since 1 July heating degree days 4222 4068  
Cooling Degree Days 4 1  
Month to date cooling degree days 4 1  
Year to date cooling degree days 4 3  
Growing Degree Days 18 (Base 50)    
Moisture  
Dew Point 44 °F    
Average Humidity 43    
Maximum Humidity 60    
Minimum Humidity 26    
Precipitation  
Precipitation 0.00 in 0.13 in 1.30 in (1958)
Month to date precipitation 0.43 1.52  
Year to date precipitation 10.97 11.28  
Sea Level Pressure  
Sea Level Pressure 30.03 in    
Wind  
Wind Speed 10 mph (SW)    
Max Wind Speed 21 mph    
Max Gust Speed 27 mph    
Visibility 10 miles    
Events      
T = Trace of Precipitation, MM = Missing Value Source: NWS Daily Summary

Daily Weather History Graph

Daily Weather History Graph

Search for Another Location

Airport or City:

Trip Planner

Search our weather history database for the weather conditions in past years. The results will help you decide how hot, cold, wet, or windy it might be!

Date:

Astronomy

Apr. 11, 2014 Rise Set
Actual Time 6:31 AM EDT 7:34 PM EDT
Civil Twilight 6:03 AM EDT 8:01 PM EDT
Nautical Twilight 5:31 AM EDT 8:34 PM EDT
Astronomical Twilight 4:57 AM EDT 9:08 PM EDT
Moon 4:14 PM EDT (4/11) 4:22 AM EDT (4/11)
Length of Visible Light 13h 57m
Length of Day
13h 03m
Waxing Gibbous, 87% of the Moon is Illuminated
Apr 11
Waxing Gibbous
Apr 15
Full
Apr 22
Last Quarter
Apr 29
New
May 6
First Quarter

Hourly Weather History & Observations

Time (EDT) Temp. Dew Point Humidity Pressure Visibility Wind Dir Wind Speed Gust Speed Precip Events Conditions
12:54 AM 55.9 °F 41.0 °F 57% 30.08 in 10.0 mi SSW 10.4 mph - N/A   Clear
1:54 AM 57.9 °F 42.1 °F 56% 30.06 in 10.0 mi SSW 11.5 mph - N/A   Clear
2:54 AM 57.0 °F 43.0 °F 59% 30.05 in 10.0 mi SSW 11.5 mph - N/A   Clear
3:54 AM 59.0 °F 43.0 °F 55% 30.04 in 10.0 mi SW 12.7 mph - N/A   Clear
4:54 AM 61.0 °F 43.0 °F 52% 30.04 in 10.0 mi SW 13.8 mph 23.0 mph N/A   Clear
5:54 AM 60.1 °F 43.0 °F 53% 30.06 in 10.0 mi SW 12.7 mph - N/A   Clear
6:54 AM 60.1 °F 42.1 °F 51% 30.08 in 10.0 mi SW 12.7 mph - N/A   Clear
7:54 AM 62.1 °F 42.1 °F 48% 30.09 in 10.0 mi SW 12.7 mph - N/A   Clear
8:54 AM 64.9 °F 42.1 °F 43% 30.09 in 10.0 mi SW 12.7 mph - N/A   Clear
9:54 AM 69.1 °F 44.1 °F 40% 30.09 in 10.0 mi SW 12.7 mph 19.6 mph N/A   Clear
10:54 AM 71.1 °F 43.0 °F 36% 30.09 in 10.0 mi WSW 9.2 mph - N/A   Clear
11:54 AM 73.9 °F 44.1 °F 34% 30.07 in 10.0 mi WSW 9.2 mph - N/A   Clear
12:54 PM 77.0 °F 43.0 °F 30% 30.03 in 10.0 mi SW 10.4 mph - N/A   Clear
1:54 PM 80.1 °F 44.1 °F 28% 30.00 in 10.0 mi SW 10.4 mph - N/A   Clear
2:54 PM 80.1 °F 42.1 °F 26% 29.98 in 10.0 mi SSW 15.0 mph 19.6 mph N/A   Clear
3:54 PM 79.0 °F 43.0 °F 28% 29.97 in 10.0 mi WSW 13.8 mph - N/A   Clear
4:54 PM 79.0 °F 42.1 °F 27% 29.97 in 10.0 mi SW 12.7 mph 24.2 mph N/A   Clear
5:54 PM 78.1 °F 43.0 °F 29% 29.96 in 10.0 mi South 12.7 mph - N/A   Clear
6:54 PM 73.9 °F 43.0 °F 33% 29.95 in 10.0 mi SSW 15.0 mph - N/A   Clear
7:54 PM 70.0 °F 45.0 °F 41% 29.97 in 10.0 mi South 9.2 mph - N/A   Clear
8:54 PM 66.9 °F 46.9 °F 49% 30.00 in 10.0 mi SSW 11.5 mph - N/A   Clear
9:54 PM 69.1 °F 45.0 °F 42% 30.05 in 10.0 mi Calm Calm - N/A   Clear
10:54 PM 64.9 °F 48.9 °F 56% 30.05 in 10.0 mi NNE 5.8 mph - N/A   Clear
11:54 PM 63.0 °F 48.9 °F 60% 30.06 in 10.0 mi Calm Calm - N/A   Clear